Location: Chenango Forks
(42.2242°N, 75.8278°W)
Time: 12:19:53
(UTC-05:00)

Daily predictions for brighter satellites

Satellite Brightness Start Highest point End
(mag) Time Altitude Azimuth Time Altitude Azimuth Time Altitude Azimuth
Cosmos 1536 4.5 18:13:21 10° ESE 18:15:32 14° E 18:17:45 10° NE
H-2A R/B 4.5 18:14:32 10° E 18:16:28 14° ENE 18:18:25 10° NNE
Meteor 1-25 Rocket 4.3 18:13:28 10° S 18:19:05 88° E 18:24:50 10° N
Okean 1 3.4 18:15:23 10° N 18:19:25 59° E 18:23:26 10° SSE
Cosmos 1812 2.8 18:16:21 10° N 18:20:14 83° W 18:24:04 10° S
Cosmos 1633 3.4 18:17:59 10° SSE 18:21:13 30° E 18:24:28 10° NNE
Cosmos 1536 Rocket 3.7 18:17:44 10° N 18:22:08 53° E 18:26:30 10° SSE
Cosmos 1818 3.6 18:19:58 10° SSW 18:25:25 81° ESE 18:30:54 10° NE
Cosmos 407 Rocket 3.6 18:21:37 10° SSW 18:26:52 88° WNW 18:32:13 10° NNE
Cosmos 2360 Rocket 2.4 18:21:58 10° NNW 18:27:30 51° ENE 18:33:00 10° SE
ASTRO F (AKARI) 4.4 18:24:25 10° NNE 18:28:00 76° ESE 18:31:23 10° S
Cosmos 2219 Rocket 3.7 18:25:15 10° N 18:28:42 16° NE 18:31:49 11° E
Cosmos 2219 4.3 18:25:16 10° SSE 18:29:39 23° E 18:34:02 10° NE
Cosmos 676 Rocket 3.9 18:26:16 10° S 18:31:25 71° ESE 18:36:38 10° NNE
DNEPR-1 R/B 4.3 18:27:26 10° NW 18:31:35 53° WSW 18:35:44 10° SSE
Meteor 1-11 Rocket 4.0 18:33:32 10° SSE 18:39:02 48° E 18:44:42 10° NNE
Cosmos 1461 4.3 18:40:29 10° NW 18:44:15 40° WSW 18:48:06 10° S
DELTA 2 R/B (1) 4.2 18:40:10 10° W 18:45:36 52° SSW 18:50:43 12° ESE
Cosmos 1140 Rocket 3.5 18:41:30 10° S 18:46:31 58° ESE 18:51:35 10° NNE
Cosmos 1602 3.6 18:45:44 10° S 18:49:33 66° E 18:53:27 10° NNE
Resurs 01 Rocket 2.0 18:45:32 10° SE 18:49:40 41° ENE 18:53:49 10° N
Cosmos 1300 Rocket 3.5 18:46:43 10° S 18:51:04 65° E 18:55:29 10° NNE
Cosmos 614 Rocket 4.0 18:49:29 10° S 18:54:24 51° ESE 18:59:19 10° NNE
COSMO-SKYMED 1 4.3 18:51:09 10° N 18:55:07 35° WNW 18:59:03 10° SW
Abrixas rocket 3.7 18:53:49 10° S 18:56:24 21° SE 18:56:51 20° SE
Cosmos 1833 4.2 18:50:46 10° SSW 18:56:28 88° ESE 19:02:10 10° NNE
ALOS 2.2 18:52:59 10° SSE 18:57:37 68° ENE 19:02:16 10° N
Cosmos 2181 Rocket 4.0 18:51:52 10° N 18:58:10 81° E 19:04:30 10° S
Spot 2 Rocket 3.5 18:57:05 10° SSE 19:02:01 57° ENE 19:06:59 10° N
USA 229 DEB 4.2 18:55:32 10° NNW 19:02:19 45° NE 19:07:02 20° ESE
USA 229 4.2 18:55:38 10° NNW 19:02:25 44° NE 19:07:06 20° ESE
Cosmos 2333 Rocket 3.4 18:57:58 10° N 19:02:33 24° NE 19:04:11 21° ENE
SL-16 R/B 4.1 18:59:01 10° NW 19:04:01 33° WSW 19:09:00 10° SSW
Cosmos 2208 Rocket 4.2 18:59:19 10° N 19:04:39 52° ENE 19:09:52 10° SE
FREGAT/IRIS 3.6 19:02:20 10° S 19:05:19 49° W 19:08:21 10° NNW
Helios 1A 3.7 19:04:17 25° ESE 19:05:45 32° ENE 19:09:28 10° N
Cosmos 1340 3.3 19:02:52 10° NNW 19:06:36 56° W 19:10:18 10° S
NOSS 8 (E) 4.4 19:03:20 10° SSW 19:06:46 74° ESE 19:09:17 19° NE
Resurs 1-3 3.7 19:03:15 10° SSE 19:07:31 54° ENE 19:11:49 10° N
Cosmos 1709 Rocket 4.4 19:07:21 10° SSW 19:13:31 65° W 19:19:40 10° N
Cosmos 2074 Rocket 4.0 19:07:31 10° SSE 19:13:35 55° E 19:19:42 10° NNE
Cosmos 1850 Rocket 4.0 19:08:25 10° S 19:13:38 66° ESE 19:18:56 10° NNE
Cosmos 2184 Rocket 4.0 19:10:24 10° SSE 19:16:32 56° E 19:22:39 10° NNE
Helios 1B rocket 3.0 19:14:06 10° NNE 19:18:13 36° ESE 19:21:47 10° SSE
Envisat 3.9 19:18:30 27° ENE 19:18:31 27° ENE 19:22:45 10° N
FengYun 1-2 T 4.3 19:14:14 10° SSE 19:19:42 82° WSW 19:25:15 10° NNW
NOSS 8 (H) 4.3 19:17:31 10° SSW 19:20:52 74° ESE 19:21:51 43° NE
Intercosmos 24 4.4 19:17:07 10° S 19:21:15 59° E 19:27:09 10° NNE
USA 186 4.2 19:24:36 11° N 19:24:36 11° N 19:24:48 10° N
Okean 2 3.8 19:18:08 10° N 19:22:00 40° ENE 19:22:00 40° ENE
HJ-1C 4.1 19:19:09 10° S 19:22:28 55° W 19:25:48 10° NNW
SJ-6B 4.4 19:20:07 10° SSW 19:23:51 37° W 19:27:33 10° NNW
Tiangong 2 3.8 19:23:29 10° WSW 19:24:56 13° SW 19:26:23 10° S
Okean 1 Rocket 3.4 19:21:26 10° SSW 19:25:53 70° W 19:30:23 10° N
SAR-Lupe-1 4.1 19:26:19 53° ENE 19:26:19 53° ENE 19:29:40 10° N
Meteor 1-5 Rocket 4.3 19:20:50 10° S 19:26:43 62° E 19:32:33 10° NNE
Genesis I 3.1 19:22:53 10° NNW 19:26:51 87° ENE 19:28:05 43° SE
FENGYUN 3A 4.0 19:22:11 10° S 19:27:34 68° WSW 19:33:00 10° NNW
Cosmos 1892 Rocket 4.3 19:26:10 10° N 19:29:15 33° NE 19:29:15 33° NE
SAR-Lupe-4 3.4 19:30:26 59° SE 19:31:00 75° ENE 19:34:35 10° N
Nadezhda 3 Rocket 4.3 19:29:52 10° N 19:35:40 41° ENE 19:36:37 39° E
Gbstr 26 Del rocket 2.7 19:32:32 10° WSW 19:36:18 71° NNW 19:36:52 58° NNE
GEOS 3 Rocket 3.8 19:39:42 14° NNE 19:44:15 72° NW 19:49:30 10° SW
Cosmos 2285 Rocket 3.9 19:37:57 10° NNW 19:44:25 75° ENE 19:47:50 30° SSE
CZ-2D R/B 3.4 19:43:32 34° S 19:45:04 69° WSW 19:48:53 10° NNW
Cosmos 1025 Rocket 3.2 19:40:56 10° NNW 19:45:20 74° W 19:48:41 17° S
Cosmos 2154 Rocket 4.1 19:39:27 10° SSE 19:45:31 50° E 19:51:37 10° NNE
Cosmos 405 Rocket 3.9 19:42:34 10° N 19:45:01 33° NNE 19:45:01 33° NNE
GPS 2-04 Rocket1 4.2 19:43:19 10° SW 19:46:29 28° S 19:46:29 28° S
H-2A R/B 3.9 19:46:52 10° S 19:50:24 41° W 19:53:58 10° NNW
Meteor 2-13 Rocket 4.3 19:45:24 10° S 19:51:24 70° E 19:57:28 10° NNE
Cosmos 1536 4.2 19:47:51 10° SSW 19:51:37 39° WNW 19:55:23 10° N
COSMOS 2428 2.8 19:46:42 10° NNW 19:52:23 74° WSW 19:55:38 26° S
Cosmos 2333 4.2 19:48:01 10° NNW 19:53:47 82° WSW 19:56:21 35° SSE
Meteor 2-4 Rocket 4.5 19:49:10 10° NNW 19:54:31 50° W 19:59:41 10° SSW
Cosmos 2237 Rocket 2.8 19:51:07 10° NNW 19:55:53 41° NE 19:55:53 41° NE
NOSS 0 Rocket 3.7 20:01:57 10° NNW 20:08:08 72° ENE 20:08:24 70° E
Cosmos 2360 Rocket 4.4 20:06:45 10° NW 20:11:06 23° W 20:15:27 10° SSW
Cosmos 2219 3.9 20:07:46 10° SW 20:13:23 53° WNW 20:19:01 10° NNE
Cosmos 2219 Rocket 2.0 20:07:48 10° NNW 20:13:26 87° WSW 20:13:35 85° S
Resurs 01 Rocket 4.3 20:23:15 10° SW 20:26:19 18° W 20:29:24 10° NW
SL-16 R/B 3.8 20:24:49 10° N 20:27:20 23° N 20:27:20 23° N
BREEZE-M DEB (TANK) 4.4 20:30:13 10° WNW 20:34:18 65° SSW 20:35:01 61° S
Cosmos 2333 Rocket 2.9 20:41:34 10° NNW 20:46:14 51° WNW 20:46:14 51° WNW
NOSS 3-1 (A) 4.2 20:58:45 10° NW 21:04:58 64° NNW 21:04:58 64° NNW
ATLAS 2AS CENTAUR R/B 4.1 21:04:49 10° NNW 21:10:18 32° NNE 21:10:18 32° NNE
Cosmos 2237 Rocket 4.5 21:35:35 10° NW 21:37:44 20° WNW 21:37:44 20° WNW
